Weather History for Flint, MI

Change the Weather History Date:

Thursday, October 6, 2011

  Actual Average Record
Temperature  
Mean Temperature 62 °F 53 °F  
Max Temperature 80 °F 64 °F 89 °F (1963)
Min Temperature 43 °F 42 °F 26 °F (2003)
Degree Days  
Heating Degree Days 3 13  
Month to date heating degree days 60 70  
Since 1 July heating degree days 227 280  
Cooling Degree Days 0 0  
Month to date cooling degree days 0 2  
Year to date cooling degree days 816 528  
Growing Degree Days 12 (Base 50)    
Moisture  
Dew Point 49 °F    
Average Humidity 68    
Maximum Humidity 100    
Minimum Humidity 36    
Precipitation  
Precipitation 0.00 in 0.09 in 2.00 in (1940)
Month to date precipitation 0.08 0.57  
Year to date precipitation 33.62 24.88  
Snow  
Snow 0.00 in 0.00 in T in ()
Month to date snowfall 0.0 0.0  
Since 1 July snowfall 0.0 0.0  
Since 1 September snowfall 0.0 0.0  
Snow Depth 0.00 in    
Sea Level Pressure  
Sea Level Pressure 30.31 in    
Wind  
Wind Speed 3 mph (ESE)    
Max Wind Speed 8 mph    
Max Gust Speed 14 mph    
Visibility 4 miles    
Events Fog    
T = Trace of Precipitation, MM = Missing Value Source: NWS Daily Summary

Daily Weather History Graph

Daily Weather History Graph

Search for Another Location

Airport:

Trip Planner

Search our weather history database for the weather conditions in past years. The results will help you decide how hot, cold, wet, or windy it might be!

Date:

Astronomy

Oct. 06, 2011 Rise Set
Actual Time 7:37 AM EDT 7:07 PM EDT
Civil Twilight 7:09 AM EDT 7:36 PM EDT
Nautical Twilight 6:36 AM EDT 8:09 PM EDT
Astronomical Twilight 6:03 AM EDT 8:42 PM EDT
Moon 4:27 PM EDT (10/6) 2:17 AM EDT (10/6)
Length of Visible Light 12h 26m
Length of Day
11h 30m
Waxing Gibbous, 75% of the Moon is Illuminated
Oct 6
Waxing Gibbous
Oct 11
Full
Oct 19
Last Quarter
Oct 26
New
Nov 2
First Quarter

Hourly Weather History & Observations

Time (EDT) Temp. Windchill Dew Point Humidity Pressure Visibility Wind Dir Wind Speed Gust Speed Precip Events Conditions
12:53 AM 54.0 °F - 52.0 °F 93% 30.29 in 9.0 mi Calm Calm - N/A   Clear
1:34 AM 51.8 °F - 51.8 °F 100% 30.29 in 1.8 mi East 3.5 mph - N/A   Clear
1:44 AM 51.8 °F - 51.8 °F 100% 30.30 in 3.0 mi Calm Calm - N/A   Clear
1:47 AM 51.8 °F - 51.8 °F 100% 30.30 in 1.5 mi Calm Calm - N/A   Clear
1:53 AM 53.1 °F - 51.1 °F 93% 30.30 in 0.8 mi Calm Calm - N/A   Clear
2:00 AM 51.8 °F - 50.0 °F 94% 30.29 in 2.0 mi Calm Calm - N/A   Clear
2:03 AM 48.2 °F - 48.2 °F 100% 30.29 in 0.8 mi Calm Calm - N/A   Clear
2:12 AM 44.6 °F - 44.6 °F 100% 30.29 in 0.2 mi Calm Calm - N/A Fog Fog
2:27 AM 46.4 °F - 44.6 °F 93% 30.29 in 0.2 mi Calm Calm - N/A Fog Fog
2:39 AM 48.2 °F - 46.4 °F 93% 30.30 in 0.5 mi Calm Calm - N/A Fog Fog
2:48 AM 48.2 °F - 46.4 °F 93% 30.30 in 0.2 mi Calm Calm - N/A Fog Fog
2:53 AM 46.0 °F - 46.0 °F 100% 30.30 in 0.2 mi Calm Calm - N/A Fog Fog
3:10 AM 50.0 °F - 48.2 °F 94% 30.30 in 1.0 mi Calm Calm - N/A   Mist
3:18 AM 48.2 °F - 46.4 °F 93% 30.30 in 0.2 mi Calm Calm - N/A Fog Fog
3:44 AM 46.4 °F - 44.6 °F 93% 30.30 in 1.0 mi Calm Calm - N/A   Mist
3:47 AM 46.4 °F - 44.6 °F 93% 30.30 in 2.0 mi Calm Calm - N/A   Partly Cloudy
3:53 AM 46.0 °F - 45.0 °F 96% 30.31 in 2.0 mi Calm Calm - N/A   Partly Cloudy
4:09 AM 46.4 °F 44.3 °F 44.6 °F 93% 30.30 in 7.0 mi East 4.6 mph - N/A   Clear
4:45 AM 48.2 °F - 48.2 °F 100% 30.31 in 1.8 mi Calm Calm - N/A   Clear
4:51 AM 48.2 °F - 46.4 °F 93% 30.31 in 0.2 mi Calm Calm - N/A Fog Fog
4:53 AM 48.9 °F - 48.0 °F 97% 30.31 in 0.2 mi Calm Calm - N/A Fog Fog
5:37 AM 44.6 °F 43.1 °F 44.6 °F 100% 30.32 in 1.0 mi ENE 3.5 mph - N/A   Clear
5:41 AM 46.4 °F 45.2 °F 44.6 °F 93% 30.32 in 3.0 mi ENE 3.5 mph - N/A   Clear
5:53 AM 46.0 °F - 44.1 °F 93% 30.33 in 7.0 mi Calm Calm - N/A   Clear
6:13 AM 48.2 °F - 46.4 °F 93% 30.33 in 2.5 mi ENE 3.5 mph - N/A   Clear
6:27 AM 46.4 °F - 44.6 °F 93% 30.33 in 5.0 mi Calm Calm - N/A   Clear
6:44 AM 48.2 °F - 46.4 °F 93% 30.33 in 1.8 mi Calm Calm - N/A   Clear
6:53 AM 46.9 °F - 46.0 °F 97% 30.34 in 3.0 mi East 3.5 mph - N/A   Clear
7:53 AM 46.9 °F - 46.0 °F 97% 30.34 in 3.0 mi East 3.5 mph - N/A   Clear
8:00 AM 46.4 °F 45.2 °F 46.4 °F 100% 30.33 in 0.2 mi East 3.5 mph - N/A Fog Fog
8:06 AM 46.4 °F 45.2 °F 46.4 °F 100% 30.33 in 1.0 mi East 3.5 mph - N/A   Clear
8:25 AM 48.2 °F - 48.2 °F 100% 30.34 in 3.0 mi ENE 3.5 mph - N/A   Clear
8:53 AM 53.1 °F - 51.1 °F 93% 30.35 in 3.0 mi ENE 3.5 mph - N/A   Clear
9:53 AM 59.0 °F - 55.0 °F 87% 30.35 in 6.0 mi South 6.9 mph - N/A   Clear
10:53 AM 66.2 °F - 53.6 °F 64% 30.34 in 10.0 mi South 4.6 mph - N/A   Clear
11:53 AM 71.1 °F - 52.0 °F 51% 30.34 in 10.0 mi Calm Calm - N/A   Clear
12:53 PM 73.9 °F - 50.0 °F 43% 30.32 in 10.0 mi Calm Calm - N/A   Clear
1:53 PM 77.0 °F - 48.9 °F 37% 30.30 in 10.0 mi Calm Calm - N/A   Clear
2:53 PM 78.1 °F - 50.0 °F 37% 30.29 in 10.0 mi SW 3.5 mph - N/A   Clear
3:53 PM 80.1 °F - 51.1 °F 36% 30.29 in 10.0 mi East 3.5 mph - N/A   Clear
4:53 PM 78.1 °F - 52.0 °F 40% 30.28 in 10.0 mi SSE 4.6 mph - N/A   Clear
5:53 PM 75.9 °F - 52.0 °F 43% 30.27 in 10.0 mi South 3.5 mph - N/A   Clear
6:53 PM 73.0 °F - 50.0 °F 44% 30.28 in 10.0 mi SSE 3.5 mph - N/A   Clear
7:53 PM 69.1 °F - 52.0 °F 54% 30.30 in 10.0 mi South 4.6 mph - N/A   Clear
8:53 PM 64.0 °F - 53.1 °F 67% 30.30 in 10.0 mi SSE 5.8 mph - N/A   Clear
9:53 PM 57.0 °F - 52.0 °F 83% 30.31 in 10.0 mi SSE 6.9 mph - N/A   Clear
10:53 PM 60.1 °F - 54.0 °F 80% 30.32 in 10.0 mi South 5.8 mph - N/A   Clear
11:53 PM 59.0 °F - 52.0 °F 78% 30.32 in 10.0 mi South 6.9 mph - N/A   Clear